• Join FlightAware (Why Join?)
  • Login
  • US Flag 
03:52PM EDT


 

Airport Tracker/Info


-or-


 

Live Flight TrackerFlight Track Log ✈ ASQ5738 ✈ 07-May-2013 ✈ KALB - KIAD

Flight Track Log - Related Links

Times and Time Zones

All times are in EDT time to prevent confusion due to time zone crossing. See the ASQ5738 flight status page for this flight to view local times or setup timezone preferences in your user account.

Time Position Orientation Groundspeed Altitude Reporting Facility
EDT Latitude Longitude Course Direction KTS MPH feet Rate Location/Type
10:10AM 42.7194 -73.8078 194° South 145 167 1,400  Level Boston Center
10:11AM 42.7022 -73.8583 245° Southwest 207 238 3,200 2,160 Climbing Boston Center
10:12AM 42.7575 -73.9161 323° Northwest 230 265 6,500 2,460 Climbing Boston Center
10:13AM 42.4461 -74.1139 196° South  Level Estimated
10:13AM 42.8069 -73.9739 319° Northwest 236 272 8,900  Level Boston Center
10:14AM 42.3702 -74.1914 198° South  Level Estimated
10:14AM 42.7808 -74.0581 247° West 192 221 10,800  Level Boston Center
10:15AM 42.2943 -74.2687 194° South  Level Estimated
10:15AM 42.7378 -74.1475 237° Southwest 246 283 12,800  Level Boston Center
10:16AM 42.6797 -74.2506 233° Southwest 307 353 14,400 1,620 Climbing Boston Center
10:17AM 42.6050 -74.2342 171° South 284 327 16,100 1,680 Climbing Boston Center
10:18AM 42.5119 -74.1864 159° South 310 357 17,900 1,320 Climbing Boston Center
10:19AM 42.4458 -74.1481 157° South 327 376 18,800 1,200 Climbing Boston Center
10:20AM 42.3467 -74.0975 159° South 327 376 20,300 1,200 Climbing Boston Center
10:21AM 42.2556 -74.0503 159° South 338 389 21,300 1,020 Climbing Boston Center
10:22AM 42.1575 -74.0617 185° South 344 396 22,400 1,200 Climbing Boston Center
10:23AM 42.0589 -74.1067 199° South 355 409 23,700 1,260 Climbing Boston Center
10:24AM 41.9478 -74.1539 198° South 370 426 24,900 1,020 Climbing Boston Center
10:25AM 41.8492 -74.1986 199° South 375 432 25,800 360 Climbing Boston Center
10:27AM 41.6764 -74.2647 196° South 391 450 26,000 240 Climbing New York Center
10:28AM 41.5897 -74.3047 199° South 402 463 26,500 480 Climbing New York Center
10:29AM 41.4739 -74.3539 198° South 407 468 27,000 480 Climbing New York Center
10:30AM 41.3619 -74.4003 197° South 413 475 27,500 480 Climbing New York Center
10:31AM 41.2375 -74.4544 198° South 426 490 28,000 240 Climbing New York Center
10:32AM 41.1258 -74.4950 195° South 426 490 28,000  Level New York Center
10:33AM 41.0097 -74.5436 198° South 426 490 28,000  Level New York Center
10:34AM 40.8992 -74.6117 205° Southwest 432 497 28,000  Level New York Center
10:35AM 40.8300 -74.7503 237° Southwest 426 490 28,000 -180 Level New York Center
10:36AM 40.7689 -74.8919 240° Southwest 437 503 27,700 -660 Descending New York Center
10:37AM 40.7011 -75.0358 238° Southwest 450 518 26,700 -1,020 Descending New York Center
10:38AM 40.6397 -75.1797 241° Southwest 456 525 25,700 -1,020 Descending New York Center
10:39AM 40.5758 -75.3231 240° Southwest 456 525 24,700 -1,020 Descending New York Center
10:40AM 40.5453 -75.4631 254° West 456 525 23,700 -1,020 Descending New York Center
10:41AM 40.5097 -75.6217 254° West 451 519 22,700 -1,020 Descending New York Center
10:42AM 40.4397 -75.7506 235° Southwest 444 511 21,700 -1,020 Descending New York Center
10:43AM 40.3722 -75.8708 234° Southwest 431 496 20,700 -900 Descending New York Center
10:44AM 40.2939 -75.9958 231° Southwest 426 490 20,000 -720 Descending New York Center
10:45AM 40.2328 -76.1000 232° Southwest 403 464 19,300 -900 Descending New York Center
10:47AM 40.1333 -76.2667 232° Southwest 367 422 17,700 -960 Descending Potomac TRACON
10:48AM 40.0833 -76.3833 241° Southwest 360 414 16,900 -960 Descending Potomac TRACON
10:49AM 40.0333 -76.4833 237° Southwest 359 413 15,800 -960 Descending Potomac TRACON
10:50AM 39.9667 -76.6000 233° Southwest 357 411 15,000 -420 Descending Potomac TRACON
10:51AM 39.9167 -76.7167 241° Southwest 354 407 15,000  Level Potomac TRACON
10:52AM 39.8667 -76.8167 237° Southwest 350 403 15,000 -540 Level Potomac TRACON
10:53AM 39.8167 -76.9333 241° Southwest 353 406 14,000 -600 Descending Potomac TRACON
10:54AM 39.7667 -77.0333 237° Southwest 351 404 13,900 -900 Descending Potomac TRACON
10:55AM 39.7167 -77.1500 241° Southwest 343 395 12,200 -1,740 Descending Potomac TRACON
10:56AM 39.6667 -77.2500 237° Southwest 339 390 10,500 -1,320 Descending Potomac TRACON
10:57AM 39.6000 -77.3167 218° Southwest 298 343 9,600 -1,380 Descending Potomac TRACON
10:58AM 39.5500 -77.4000 232° Southwest 289 333 7,800 -1,980 Descending Potomac TRACON
10:59AM 39.4833 -77.4333 201° Southwest 256 295 5,700 -1,860 Descending Potomac TRACON
11:00AM 39.4167 -77.4333 180° South 249 287 4,100 -1,080 Descending Potomac TRACON
11:01AM 39.3500 -77.4333 180° South 252 290 3,600 -600 Descending Potomac TRACON
11:02AM 39.2833 -77.4333 180° South 251 289 3,000 -300 Descending Potomac TRACON
11:03AM 39.2000 -77.4333 180° South 244 281 3,000  Level Potomac TRACON
11:04AM 39.1500 -77.4333 180° South 203 234 3,000  Level Potomac TRACON
11:05AM 39.1000 -77.4333 180° South 167 192 3,000  Level Potomac TRACON